EHI
0 0 0 0 0 0 0 0 0 0 0 0 0 0 0 0 0 0 0 0 0 0 0 0 0 0 0 0 0 0 0 0 0 0 0 0 0 0
0 0 0 0 0 0 0 0 0 0 0 0 0 0 0 0 0 0 0 0 0 0 0 0 0 0 0 0 0 0 0 0 0 0 0 0 0 0
0 0 0 0 0 0 0 0 0 0 0 0 0 0 0 0 0 0 0 0 0 0 0 0 0 0 0 0 0 0 0 0 0 0 0 0 0 0
0 0 0 0 0 0 0 0 0 0 0 0 0 0 0 0 0 0 0 0 0 0 0 0 0 0 0 0 0 0 0 0 0 0 0 0 0 0
0 0 0 0 0 0 0 0 0 0 0 0 0 0 0 0 0 0 0 0 0 0 0 0 0 0 0 0 0 0 0 0 0 0 0 0 0 0
0 0 0 0 0 0 0 0 0 0 0 0 0 0 0 0 0 0 0 0 0 0 0 0 0 0 0 0 0 0 0 0 0 0 0 0 0 0
0 0 0 0 0 0 0 0 0 0 0 0 0 0 0 0 0 0 0 0 0 0 0 0 0 0 0 0 0 0 0 0 0 0 0 0 0 0
0 0 0 0 0 0 0 0 0 0 0 0 0 0 0 0 0 0 0 0 0 0 0 0 0 0 0 0 0 0 0 0 0 0 0 0 0 0
0 0 0 0 0 0 0 0 0 0 0 0 0 0 0 0 0 0 0 0 0 0 0 0 0 0 0 0 0 0 0 0 0 0 0 0 0 0
0 0 0 0 0 0 0 0 0 0 0 0 0 0 0 0 0 0 0 0 0 0 0 0 0 0 0 0 0 0 0 0 0 0 0 0 0 0
0 0 0 0 0 0 0 0 0 0 0 0 0 0 0 0 0 0 0 0 0 0 0 0 0 0 0 0 0 0 0 0 0 0 0 0 0 0
0 0 0 0 0 0 0 0 0 0 0 0 0 0 0 0 0 0 0 0 0 0 0 0 0 0 0 0 0 0 0 0 0 0 0 0 0 0
0 0 0 0 0 0 0 0 0 0 0 0 0 0 0 0 0 0 0 0 0 0 0 0 0 0 0 0 0 0 0 0 0 0 0 0 0 0
0 0 0 0 0 0 0 0 0 0 0 0 0 0 0 0 0 0 0 0 0 0 0 0 0 0 0 0 0 0 0 0 0 0 0 0 0 0
0 0 0 0 0 0 0 0 0 0 0 0 0 0 0 0 0 0 0 0 0 0 0 0 0 0 0 0 0 0 0 0 0 0 0 0 0 0
0 0 0 0 0 0 0 0 0 0 0 0 0 0 0 0 0 0 0 0 0 0 0 0 0 0 0 0 0 0 0 0 0 0 0 0 0 0
0 0 0 0 0 0 0 0 0 0 0 0 0 0 0 0 0 0 0 0 0 0 0 0 0 0 0 0 0 0 0 0 0 0 0 0 0 0
0 0 0 0 0 0 0 0 0 0 0 0 0 0 0 0 0 0 0 0 0 0 0 0 0 0 0 0 0 0 0 0 0 0 0 0 0 0
0 0 0 0 0 0 0 0 0 0 0 0 0 0 0 0 0 0 0 0 0 0 0 0 0 0 0 0 0 0 0 0 0 0 0 0 0 0
0 0 0 0 0 0 0 0 0 0 0 0 0 0 0 0 0 0 0 0 0 0 0 0 0 0 0 0 0 0 0 0 0 0 0 0 0 0
0 0 0 0 0 0 0 0 0 0 0 0 0 0 0 0 0 0 0 0 0 0 0 0 0 0 0 0 0 0 0 0 0 0 0 0 0 0
0 0 0 0 0 0 0 0 0 0 0 0 0 0 0 0 0 0 0 0 0 0 0 0 0 0 0 0 0 0 0 0 0 0 0 0 0 0
0 0 0 0 0 0 0 0 0 0 0 0 0 0 0 0 0 0 0 0 0 0 0 0 0 0 0 0 0 0 0 0 0 0 0 0 0 0
Wind_Speed
3 4 5 5 6 7 7 8 10 12 11 10 9 9 9 10 10 12 14 15 16 18 19 21 22 23 24 24 24 24 24 24 24 24 24 25 25 25
3 5 6 6 6 7 7 8 9 11 12 9 10 11 11 12 14 15 16 17 19 21 21 21 21 22 23 24 24 24 24 24 24 25 25 24 24 24
5 6 7 8 8 8 8 8 8 9 11 11 10 11 13 14 14 14 14 14 13 15 16 17 19 20 22 23 24 24 24 24 24 24 24 24 24 24
6 7 8 7 9 9 8 9 9 9 11 13 11 11 13 14 14 14 13 12 13 14 14 16 19 21 22 22 23 22 22 22 23 23 23 23 22 23
7 8 9 9 10 9 9 9 8 9 9 11 12 11 11 11 13 13 14 12 13 13 14 17 20 20 20 20 21 20 19 18 19 21 22 22 22 22
8 9 9 9 10 11 9 10 10 10 10 10 11 11 11 12 11 10 11 10 11 12 14 14 14 16 18 19 21 21 19 18 18 18 19 19 19 20
9 9 9 9 11 10 10 11 12 10 10 10 10 11 11 10 10 9 10 10 11 11 11 11 10 10 11 14 18 20 19 17 17 17 17 17 17 18
10 9 10 9 8 11 13 15 15 15 13 12 11 11 12 12 10 9 9 10 8 7 10 11 10 10 9 9 9 10 12 14 15 15 15 16 16 17
10 9 8 8 10 9 11 14 15 16 16 13 13 13 13 12 11 11 10 11 11 10 10 11 10 10 9 9 9 11 12 13 14 14 14 14 15 15
9 9 9 10 8 10 14 15 14 12 11 11 11 12 12 12 11 11 12 11 11 10 9 9 9 9 10 8 6 9 11 12 13 13 13 13 13 13
10 9 9 10 8 11 14 14 14 12 9 10 12 15 16 16 13 9 9 8 8 9 7 5 7 10 10 8 4 7 10 11 11 12 12 12 12 12
9 9 6 6 11 13 13 13 12 12 13 13 11 10 9 8 9 8 7 7 6 6 4 4 6 6 7 7 6 5 6 8 10 11 11 11 11 10
8 8 7 9 13 14 14 11 11 13 12 10 9 8 8 6 6 6 6 6 6 5 4 4 4 5 5 6 8 7 5 3 4 6 9 11 12 11
8 8 8 12 15 16 11 10 14 13 7 7 7 7 7 7 7 7 7 6 5 6 7 6 4 5 6 6 5 6 5 4 3 3 3 7 9 9
8 10 12 14 14 10 7 11 11 7 6 6 7 7 6 7 7 7 7 7 6 4 5 6 6 6 5 5 5 5 4 3 2 2 1 3 4 5
8 9 10 10 9 8 8 7 6 6 6 6 7 6 6 6 6 6 6 6 6 6 6 6 6 5 4 6 6 5 4 3 2 1 1 1 1 2
11 8 7 8 8 8 8 8 7 7 6 6 6 7 6 6 6 6 6 6 6 7 8 7 6 2 3 6 6 6 5 3 3 2 2 3 2 1
9 6 7 7 8 8 8 8 8 7 7 6 6 6 6 6 6 7 7 7 7 8 8 9 8 6 4 5 11 9 6 5 5 5 4 4 4 4
5 6 7 7 8 8 8 8 8 7 7 7 6 6 6 6 7 7 8 7 8 8 9 9 10 9 9 8 10 16 9 6 6 6 7 6 5 5
6 6 7 7 8 8 8 8 8 7 7 7 6 6 7 7 7 7 8 9 8 9 9 9 9 9 8 7 6 10 18 10 6 6 6 6 5 6
7 7 7 7 8 8 8 8 8 7 8 7 7 7 6 7 7 7 7 8 8 8 9 9 9 10 7 6 7 10 12 17 17 9 5 4 5 6
7 7 8 8 8 8 8 8 8 8 8 8 7 7 7 7 7 8 8 8 8 8 8 7 8 9 9 10 10 10 11 11 15 21 22 16 7 5
7 8 8 8 8 8 8 9 10 8 8 8 8 7 8 7 7 7 8 8 7 8 8 8 8 8 9 9 9 9 13 12 11 12 13 18 19 18
Wind_Direction
316 303 299 303 291 294 292 289 292 295 295 301 295 299 299 293 300 293 289 285 282 279 275 273 272 272 272 271 271 271 270 270 269 268 269 268 267 265
323 316 307 302 306 291 287 288 286 288 292 298 300 299 305 300 296 293 289 286 273 265 263 265 268 270 270 269 268 268 267 267 266 265 265 264 264 263
315 310 305 307 302 304 296 291 289 291 292 296 297 300 299 293 294 293 292 290 285 270 263 261 264 266 267 267 266 266 265 265 265 265 264 262 261 261
315 311 308 307 304 293 297 297 297 296 291 295 296 295 293 291 289 290 290 288 289 289 275 266 266 266 265 264 264 263 263 263 263 263 263 263 261 260
316 312 310 306 300 300 299 294 294 292 289 289 292 296 293 292 294 291 292 290 290 287 277 263 262 260 259 259 258 258 256 254 254 256 258 259 259 257
310 306 303 303 303 305 298 295 297 297 293 290 292 294 292 295 295 295 296 297 294 295 290 285 275 264 257 256 255 255 252 248 246 246 248 249 251 253
307 305 303 306 299 295 301 306 304 299 296 294 293 295 297 300 299 301 299 298 297 293 292 289 283 275 269 256 252 253 250 246 244 242 241 240 240 242
310 310 304 288 289 283 279 286 290 291 295 295 293 292 297 299 303 301 299 297 296 291 293 292 292 288 282 275 266 254 246 246 246 244 241 237 236 236
312 309 307 313 304 310 309 295 284 272 269 281 288 292 299 303 303 300 296 294 292 295 295 291 293 289 287 280 256 248 247 249 249 245 243 238 234 232
310 308 309 310 334 336 316 302 299 299 297 292 295 299 300 302 300 294 290 289 289 288 290 291 299 302 300 293 259 239 245 249 248 245 240 236 233 229
315 314 313 315 355 330 308 302 305 309 301 288 284 282 282 280 279 286 288 289 295 300 309 299 303 310 306 303 282 232 238 246 246 242 237 232 228 225
317 313 313 337 329 315 310 308 311 319 320 317 309 303 298 293 275 275 285 290 296 296 316 308 297 309 304 305 312 294 253 237 238 237 233 226 217 224
314 316 330 343 320 310 303 304 317 313 306 310 315 322 328 327 322 313 300 291 293 288 303 305 289 293 283 296 308 311 312 302 255 233 223 218 213 223
313 323 331 325 311 303 303 314 308 301 305 317 326 335 337 336 330 327 321 309 288 287 297 298 282 288 292 292 294 307 315 306 287 263 227 192 204 215
318 318 308 302 302 302 307 306 305 316 334 335 338 341 342 338 337 337 339 336 329 322 315 308 299 296 296 296 300 302 308 308 303 281 219 188 189 188
329 318 304 298 303 319 320 326 335 344 343 343 342 343 347 349 352 350 346 348 346 344 344 338 329 325 328 328 320 322 326 327 337 348 95 121 141 184
324 320 339 344 344 344 345 346 344 349 354 356 351 349 352 0 0 358 359 359 359 356 355 350 343 349 51 15 350 349 352 5 16 28 66 89 79 62
321 341 344 342 341 340 341 341 344 350 352 356 2 359 0 5 6 9 12 9 8 7 5 1 1 10 21 46 20 0 11 25 32 40 50 66 58 40
340 348 341 340 338 338 338 341 344 350 353 2 11 8 10 13 14 18 17 16 16 16 16 13 12 15 23 21 13 11 16 29 40 47 47 51 53 42
354 342 338 337 336 337 339 344 349 357 6 14 20 20 20 24 24 27 27 23 23 23 21 20 19 18 25 21 17 21 25 29 32 44 51 59 64 66
344 341 340 339 337 339 345 349 357 7 15 19 26 30 32 32 30 31 36 30 28 30 27 24 20 21 33 37 44 41 40 42 45 39 26 45 53 48
343 340 339 340 342 347 352 358 5 15 21 26 30 34 37 38 39 39 38 36 35 35 36 35 36 39 41 44 44 41 43 45 47 49 47 45 47 43
340 337 337 344 351 354 359 2 9 18 25 26 32 37 39 41 44 45 46 46 45 45 46 44 47 49 49 49 49 49 50 49 48 51 52 52 64 70